BIOMASS

Last updated on Sat Oct 25 2025 00:02:33 GMT+0000 (Coordinated Universal Time)

1 63772U 25090A 25297.52849088 .00001851 00000+0 33483-3 0 9998 2 63772 98.0722 123.2406 0001684 109.2188 250.9199 14.67545133 26126
UTC large
Height (km)
Speed (km/s)
/
Latitude / Longitude
Inclination (degrees)
Orbital Period (minutes)
Azimuth
Elevation
Range (km)
Doppler Factor

Next 0 passes for location: London (51.5072 / 0.1276)

Sorry there are no passes over London.